カタログに戻る

ARIANE 1 DEB

運用中SSO
NORAD 16616·DEBRIS·🇫🇷 France

打ち上げ Feb 22, 1986 から Guiana Space Centre

Loading…

次のパス (今後24時間)

TLE

最新Source: Space-Track

元期: Sep 14, 2026, 14:37 UTC

1 16616U 86019D   26257.60945196  .00000231  00000-0  10285-3 0  9991
2 16616  98.2778 249.4258 0006915 333.5227  98.8433 14.31372954111033

AllMySatでARIANE 1 DEBをリアルタイム追跡

Download on the App Store